Torna al catalogo

FENGYUN 1C DEB

AttivoSSO
NORAD 31523·DEBRIS·🇨🇳 China

Lanciato May 10, 1999 da Taiyuan Satellite Launch Center

Loading…

Prossimi Passaggi (prossime 24 ore)

TLE

AggiornatoSource: Space-Track

Epoca: Sep 14, 2026, 08:40 UTC

1 31523U 99025BXN 26257.36128650 -.00000014  00000-0  15165-4 0  9990
2 31523  98.7183 303.6537 0039121  46.2120  14.2859 14.13883034999023

Traccia FENGYUN 1C DEB in tempo reale con AllMySat

Download on the App Store